Location: Newark
(7.0858°N, 171.3717°E)
Time: 12:49:52
(UTC+00:00)

Vanguard 1 Rocket - Pass Details

Date: 29 November 2020
Orbit: 655 x 4222 km, 34.3° (Epoch: 23 January)

Event Time Altitude Azimuth Distance (km) Brightness Sun altitude
Rises 06:40:26 0° 186° (S) 5,099 11.6 -6.7°
Reaches altitude 10° 06:48:45 10° 151° (SSE) 5,127 11.1 -8.6°
Maximum altitude 06:51:51 11° 139° (SE) 5,407 11.1 -9.3°
Drops below altitude 10° 06:55:18 10° 127° (SE) 5,830 11.2 -10.1°
Enters shadow 07:06:24 - 100° (E) 7,556 11.6 -12.7°
